Time,TemperatureF,DewpointF,PressureIn,WindDirection,WindDirectionDegrees,WindSpeedMPH,WindSpeedGustMPH,Humidity,HourlyPrecipIn,Conditions,Clouds,dailyrainin,SoftwareType,DateUTC
2013-03-14 00:10:00,50.5,38.0,30.08,SSE,148,0.0,3.0,63,0.00,,,0.00,weatherlink.com 1.10,2013-03-14 07:10:00,
2013-03-14 00:25:00,50.3,38.0,30.09,North,358,0.0,1.0,63,0.00,,,0.00,weatherlink.com 1.10,2013-03-14 07:25:00,
2013-03-14 00:40:00,50.8,38.0,30.08,NW,322,2.0,2.0,62,0.00,,,0.00,weatherlink.com 1.10,2013-03-14 07:40:00,
2013-03-14 00:55:00,51.6,38.0,30.08,West,259,1.0,7.0,60,0.00,,,0.00,weatherlink.com 1.10,2013-03-14 07:55:00,
2013-03-14 01:10:00,52.0,37.0,30.08,SW,226,3.0,8.0,58,0.00,,,0.00,weatherlink.com 1.10,2013-03-14 08:10:00,
2013-03-14 01:25:00,52.1,37.0,30.07,SSW,209,7.0,12.0,57,0.00,,,0.00,weatherlink.com 1.10,2013-03-14 08:25:00,
2013-03-14 01:40:00,51.7,37.0,30.08,WSW,255,2.0,7.0,58,0.00,,,0.00,weatherlink.com 1.10,2013-03-14 08:40:00,
2013-03-14 01:55:00,51.0,37.0,30.08,South,179,2.0,5.0,60,0.00,,,0.00,weatherlink.com 1.10,2013-03-14 08:55:00,
2013-03-14 02:10:00,50.9,37.0,30.08,SSW,210,3.0,5.0,60,0.00,,,0.00,weatherlink.com 1.10,2013-03-14 09:10:00,
2013-03-14 02:25:00,50.6,37.0,30.08,West,269,0.0,4.0,61,0.00,,,0.00,weatherlink.com 1.10,2013-03-14 09:25:00,
2013-03-14 02:40:00,49.6,37.0,30.08,SSW,203,1.0,3.0,63,0.00,,,0.00,weatherlink.com 1.10,2013-03-14 09:40:00,
2013-03-14 02:55:00,49.6,38.0,30.08,SW,232,1.0,2.0,64,0.00,,,0.00,weatherlink.com 1.10,2013-03-14 09:55:00,
2013-03-14 03:10:00,50.3,38.0,30.08,SSW,212,4.0,7.0,63,0.00,,,0.00,weatherlink.com 1.10,2013-03-14 10:10:00,
2013-03-14 03:25:00,50.2,37.0,30.07,WSW,256,1.0,5.0,62,0.00,,,0.00,weatherlink.com 1.10,2013-03-14 10:25:00,
2013-03-14 03:40:00,50.1,38.0,30.07,North,11,1.0,1.0,63,0.00,,,0.00,weatherlink.com 1.10,2013-03-14 10:40:00,
2013-03-14 03:55:00,50.5,38.0,30.06,NNE,15,0.0,1.0,63,0.00,,,0.00,weatherlink.com 1.10,2013-03-14 10:55:00,
2013-03-14 04:10:00,50.5,38.0,30.07,West,264,0.0,4.0,62,0.00,,,0.00,weatherlink.com 1.10,2013-03-14 11:10:00,
2013-03-14 04:25:00,49.4,38.0,30.06,NNE,29,0.0,2.0,65,0.00,,,0.00,weatherlink.com 1.10,2013-03-14 11:25:00,
2013-03-14 04:40:00,49.7,38.0,30.05,NE,49,1.0,2.0,64,0.00,,,0.00,weatherlink.com 1.10,2013-03-14 11:40:00,
2013-03-14 04:55:00,50.7,38.0,30.05,NE,54,0.0,1.0,63,0.00,,,0.00,weatherlink.com 1.10,2013-03-14 11:55:00,
2013-03-14 05:10:00,50.3,38.0,30.05,ESE,104,1.0,1.0,63,0.00,,,0.00,weatherlink.com 1.10,2013-03-14 12:10:00,
2013-03-14 05:25:00,48.7,38.0,30.05,SSE,148,0.0,4.0,66,0.00,,,0.00,weatherlink.com 1.10,2013-03-14 12:25:00,
2013-03-14 05:40:00,49.2,38.0,30.05,North,357,1.0,3.0,65,0.00,,,0.00,weatherlink.com 1.10,2013-03-14 12:40:00,
2013-03-14 05:55:00,49.3,38.0,30.05,North,349,0.0,2.0,65,0.00,,,0.00,weatherlink.com 1.10,2013-03-14 12:55:00,
2013-03-14 06:10:00,49.4,38.0,30.04,North,353,1.0,1.0,65,0.00,,,0.00,weatherlink.com 1.10,2013-03-14 13:10:00,
2013-03-14 06:25:00,49.2,38.0,30.04,NNW,344,1.0,2.0,65,0.00,,,0.00,weatherlink.com 1.10,2013-03-14 13:25:00,
2013-03-14 06:40:00,48.8,37.0,30.04,NNW,347,0.0,1.0,65,0.00,,,0.00,weatherlink.com 1.10,2013-03-14 13:40:00,
2013-03-14 06:55:00,49.0,37.0,30.04,North,1,1.0,2.0,64,0.00,,,0.00,weatherlink.com 1.10,2013-03-14 13:55:00,
2013-03-14 07:10:00,49.2,37.0,30.03,NNW,328,0.0,2.0,64,0.00,,,0.00,weatherlink.com 1.10,2013-03-14 14:10:00,
2013-03-14 07:25:00,48.8,37.0,30.03,NNW,328,0.0,1.0,65,0.00,,,0.00,weatherlink.com 1.10,2013-03-14 14:25:00,
2013-03-14 07:40:00,48.1,38.0,30.03,SSE,147,2.0,3.0,67,0.00,,,0.00,weatherlink.com 1.10,2013-03-14 14:40:00,
2013-03-14 07:55:00,47.7,38.0,30.02,SSE,159,0.0,3.0,68,0.00,,,0.00,weatherlink.com 1.10,2013-03-14 14:55:00,
2013-03-14 08:10:00,48.7,38.0,30.02,NW,326,0.0,2.0,67,0.00,,,0.00,weatherlink.com 1.10,2013-03-14 15:10:00,
2013-03-14 08:25:00,48.4,38.0,30.01,NNE,15,2.0,2.0,68,0.00,,,0.00,weatherlink.com 1.10,2013-03-14 15:25:00,
2013-03-14 08:40:00,49.1,38.0,30.00,North,4,4.0,5.0,66,0.00,,,0.00,weatherlink.com 1.10,2013-03-14 15:40:00,
2013-03-14 08:55:00,49.5,38.0,30.00,North,11,2.0,3.0,66,0.00,,,0.00,weatherlink.com 1.10,2013-03-14 15:55:00,
2013-03-14 09:10:00,45.8,38.0,30.00,SSE,159,5.0,5.0,75,0.00,,,0.00,weatherlink.com 1.10,2013-03-14 16:10:00,
2013-03-14 09:25:00,45.4,38.0,30.00,SSE,148,3.0,6.0,76,0.00,,,0.00,weatherlink.com 1.10,2013-03-14 16:25:00,
2013-03-14 09:40:00,46.4,39.0,29.99,SSE,152,5.0,5.0,76,0.00,,,0.00,weatherlink.com 1.10,2013-03-14 16:40:00,
2013-03-14 09:56:00,48.8,40.0,29.99,ESE,121,1.0,4.0,71,0.00,,,0.00,weatherlink.com 1.10,2013-03-14 16:56:00,
2013-03-14 10:11:00,49.4,41.0,29.99,West,264,2.0,3.0,72,0.00,,,0.00,weatherlink.com 1.10,2013-03-14 17:11:00,
2013-03-14 10:26:00,47.5,40.0,29.99,SE,136,4.0,7.0,74,0.00,,,0.00,weatherlink.com 1.10,2013-03-14 17:26:00,
2013-03-14 10:41:00,48.5,39.0,29.99,SSW,195,1.0,5.0,71,0.00,,,0.00,weatherlink.com 1.10,2013-03-14 17:41:00,
2013-03-14 10:56:00,49.8,41.0,29.99,SW,224,0.0,5.0,71,0.00,,,0.00,weatherlink.com 1.10,2013-03-14 17:56:00,
2013-03-14 11:11:00,49.8,41.0,30.00,South,181,3.0,5.0,71,0.00,,,0.00,weatherlink.com 1.10,2013-03-14 18:11:00,
2013-03-14 11:26:00,50.4,41.0,29.99,SSE,153,1.0,7.0,71,0.00,,,0.00,weatherlink.com 1.10,2013-03-14 18:26:00,
2013-03-14 11:41:00,52.6,43.0,29.98,North,8,1.0,3.0,69,0.00,,,0.00,weatherlink.com 1.10,2013-03-14 18:41:00,
2013-03-14 11:56:00,52.5,42.0,29.98,NW,318,0.0,3.0,68,0.00,,,0.00,weatherlink.com 1.10,2013-03-14 18:56:00,
2013-03-14 12:11:00,53.3,43.0,29.97,NW,323,1.0,3.0,67,0.00,,,0.00,weatherlink.com 1.10,2013-03-14 19:11:00,
2013-03-14 12:26:00,53.6,43.0,29.98,NW,319,1.0,2.0,67,0.00,,,0.00,weatherlink.com 1.10,2013-03-14 19:26:00,
2013-03-14 12:41:00,54.4,43.0,29.97,West,271,0.0,2.0,65,0.00,,,0.00,weatherlink.com 1.10,2013-03-14 19:41:00,
2013-03-14 12:56:00,56.1,43.0,29.97,WSW,243,1.0,5.0,61,0.00,,,0.00,weatherlink.com 1.10,2013-03-14 19:56:00,
2013-03-14 13:11:00,57.6,40.0,29.96,SW,234,2.0,12.0,53,0.00,,,0.00,weatherlink.com 1.10,2013-03-14 20:11:00,
2013-03-14 13:26:00,58.0,38.0,29.95,SSE,160,5.0,14.0,48,0.00,,,0.00,weatherlink.com 1.10,2013-03-14 20:26:00,
2013-03-14 13:41:00,58.7,38.0,29.94,SSE,160,8.0,14.0,46,0.00,,,0.00,weatherlink.com 1.10,2013-03-14 20:41:00,
2013-03-14 13:56:00,59.2,36.0,29.92,SSE,155,12.0,21.0,43,0.00,,,0.00,weatherlink.com 1.10,2013-03-14 20:56:00,
2013-03-14 14:26:00,58.7,39.0,29.94,SSE,163,3.0,19.0,49,0.00,,,0.00,weatherlink.com 1.10,2013-03-14 21:26:00,
2013-03-14 14:41:00,58.4,38.0,29.94,SSW,200,11.0,20.0,47,0.00,,,0.00,weatherlink.com 1.10,2013-03-14 21:41:00,
2013-03-14 14:56:00,59.0,40.0,29.93,SW,227,5.0,19.0,49,0.00,,,0.00,weatherlink.com 1.10,2013-03-14 21:56:00,
2013-03-14 15:11:00,58.7,39.0,29.93,South,191,13.0,19.0,48,0.00,,,0.00,weatherlink.com 1.10,2013-03-14 22:11:00,
2013-03-14 15:26:00,58.9,40.0,29.93,SW,226,6.0,20.0,49,0.00,,,0.00,weatherlink.com 1.10,2013-03-14 22:26:00,
2013-03-14 15:41:00,58.6,40.0,29.93,SSE,152,8.0,15.0,50,0.00,,,0.00,weatherlink.com 1.10,2013-03-14 22:41:00,
2013-03-14 15:56:00,58.2,39.0,29.93,SSW,210,6.0,17.0,49,0.00,,,0.00,weatherlink.com 1.10,2013-03-14 22:56:00,
2013-03-14 16:11:00,57.6,39.0,29.94,SW,221,13.0,16.0,50,0.00,,,0.00,weatherlink.com 1.10,2013-03-14 23:11:00,
2013-03-14 16:26:00,57.8,40.0,29.94,SSW,197,8.0,16.0,51,0.00,,,0.00,weatherlink.com 1.10,2013-03-14 23:26:00,
2013-03-14 16:41:00,58.1,41.0,29.93,South,181,16.0,19.0,53,0.00,,,0.00,weatherlink.com 1.10,2013-03-14 23:41:00,
2013-03-14 16:56:00,57.3,41.0,29.93,SSW,207,10.0,22.0,55,0.00,,,0.00,weatherlink.com 1.10,2013-03-14 23:56:00,
2013-03-14 17:11:00,56.7,40.0,29.93,SSW,205,10.0,16.0,55,0.00,,,0.00,weatherlink.com 1.10,2013-03-15 00:11:00,
2013-03-14 17:26:00,56.2,41.0,29.92,SSW,208,7.0,15.0,57,0.00,,,0.00,weatherlink.com 1.10,2013-03-15 00:26:00,
2013-03-14 17:41:00,55.8,40.0,29.92,SSW,204,9.0,19.0,55,0.00,,,0.00,weatherlink.com 1.10,2013-03-15 00:41:00,
2013-03-14 17:56:00,55.5,40.0,29.92,South,190,13.0,21.0,56,0.00,,,0.00,weatherlink.com 1.10,2013-03-15 00:56:00,
2013-03-14 18:11:00,55.2,39.0,29.93,SW,225,8.0,21.0,55,0.00,,,0.00,weatherlink.com 1.10,2013-03-15 01:11:00,
2013-03-14 18:26:00,54.8,40.0,29.93,SSW,210,6.0,13.0,58,0.00,,,0.00,weatherlink.com 1.10,2013-03-15 01:26:00,
2013-03-14 18:41:00,54.5,41.0,29.94,SW,226,11.0,14.0,60,0.00,,,0.00,weatherlink.com 1.10,2013-03-15 01:41:00,
2013-03-14 18:56:00,53.9,41.0,29.94,WSW,239,11.0,11.0,63,0.00,,,0.00,weatherlink.com 1.10,2013-03-15 01:56:00,
2013-03-14 19:11:00,53.7,42.0,29.94,SW,224,8.0,16.0,64,0.00,,,0.00,weatherlink.com 1.10,2013-03-15 02:11:00,
2013-03-14 19:26:00,53.5,41.0,29.94,SSW,202,10.0,17.0,64,0.00,,,0.00,weatherlink.com 1.10,2013-03-15 02:26:00,
2013-03-14 19:41:00,53.3,41.0,29.93,SSW,199,4.0,15.0,63,0.00,,,0.00,weatherlink.com 1.10,2013-03-15 02:41:00,
2013-03-14 19:56:00,53.3,41.0,29.94,SSW,198,6.0,18.0,64,0.00,,,0.00,weatherlink.com 1.10,2013-03-15 02:56:00,
2013-03-14 20:11:00,53.0,39.0,29.92,South,187,9.0,15.0,59,0.00,,,0.00,weatherlink.com 1.10,2013-03-15 03:11:00,
2013-03-14 20:26:00,52.8,39.0,29.93,SSW,195,14.0,15.0,60,0.00,,,0.00,weatherlink.com 1.10,2013-03-15 03:26:00,
2013-03-14 20:41:00,52.8,39.0,29.93,South,176,12.0,23.0,60,0.00,,,0.00,weatherlink.com 1.10,2013-03-15 03:41:00,
2013-03-14 20:56:00,52.5,39.0,29.93,South,174,12.0,22.0,61,0.00,,,0.00,weatherlink.com 1.10,2013-03-15 03:56:00,
2013-03-14 21:11:00,52.6,36.0,29.92,South,179,12.0,20.0,54,0.00,,,0.00,weatherlink.com 1.10,2013-03-15 04:11:00,
2013-03-14 21:26:00,52.7,36.0,29.93,SSE,162,19.0,23.0,54,0.00,,,0.00,weatherlink.com 1.10,2013-03-15 04:26:00,
2013-03-14 21:41:00,52.7,35.0,29.93,SSW,193,12.0,24.0,52,0.00,,,0.00,weatherlink.com 1.10,2013-03-15 04:41:00,
2013-03-14 21:56:00,52.7,33.0,29.94,SW,215,6.0,20.0,48,0.00,,,0.00,weatherlink.com 1.10,2013-03-15 04:56:00,
2013-03-14 22:11:00,52.6,34.0,29.94,SSW,198,13.0,21.0,49,0.00,,,0.00,weatherlink.com 1.10,2013-03-15 05:11:00,
2013-03-14 22:26:00,52.3,35.0,29.94,SSW,198,17.0,28.0,52,0.00,,,0.00,weatherlink.com 1.10,2013-03-15 05:26:00,
2013-03-14 22:42:00,51.8,34.0,29.95,South,176,13.0,31.0,51,0.00,,,0.00,weatherlink.com 1.10,2013-03-15 05:42:00,
2013-03-14 22:56:00,51.6,35.0,29.94,SSW,197,11.0,24.0,53,0.00,,,0.00,weatherlink.com 1.10,2013-03-15 05:56:00,
2013-03-14 23:12:00,51.5,33.0,29.94,SSW,210,14.0,24.0,49,0.00,,,0.00,weatherlink.com 1.10,2013-03-15 06:12:00,
2013-03-14 23:42:00,50.7,31.0,29.94,SSW,194,16.0,27.0,48,0.00,,,0.00,weatherlink.com 1.10,2013-03-15 06:42:00,
2013-03-14 23:57:00,49.9,33.0,29.96,SW,217,6.0,24.0,53,0.00,,,0.00,weatherlink.com 1.10,2013-03-15 06:57:00,